STARLINK-3994, 52633

Orbit data source: Space-Track

STARLINK-3994, 52633 is a payload satellite owned by SpaceX/Seattle (US) in LEO that was launched on Sat, 14 May 2022 UTC via an FALCON 9 launch vehicle from the Air Force Eastern Test Range (AFETR). Payload-class satellites include a variety of spacecraft equipped with specific instruments for various scientific and technological missions. These include communications satellites like Starlink; space stations such as the ISS; scientific satellites like the Hubble; Earth observation satellites from companies like Planet Labs, Umbra, and HawkEye 360; GPS; miniature CubeSats for education and research; and military/defense satellites.

Loading next visibility...
Identifier
52633, 2022-052AM
Orbit
LEO
Country
Flag of USUS
Related business
Manufacturer
SpaceX/Seattle
Mission
Operational Commercial Communications
Bus & Motor
STARLINK, Unknown motor
Mass
297 kg wet, ~275 kg dry
Launch date (UTC)
2022-05-14 (4 years ago)
Launch vehicle
FALCON 9
Launch site
Air Force Eastern Test Range (AFETR)
Object type
Payload
Rocket body
Debris
Shape & HBR
Box + 1 Pan, 10.1 m
Radar Cross Section
13.562 m², Large (>1 m²)

Expand to show TLE details & history
Last TLE update: 2 days ago

TLE from 2 days ago
0 STARLINK-3994
1 52633U 22052AM  26171.36932125  .00000123  00000-0  25843-4 0  9990
2 52633  53.1591 168.0587 0001278  89.6805 270.4333 15.08831048226509
Epoch: 2026-06-20T08:51Z
TLE epoch observation values (Epoch: 2026-06-20T08:51:49.356Z)
Latitude
-0.00004°
Longitude
126.5181°
Altitude
540.655 km
Speed
7.593 km/s
True Right ascension
11h 12m 14s
True Declination
0° 00' 00"
Sunlit
Object was in daylight at epoch
Visualization orbit readout
Latitude
Unknown
Longitude
Unknown
Altitude
Unknown
Speed
Unknown
Apparent Right ascension
Unknown
Apparent Declination
Unknown
Sunlit
N/A
Visualization observer readout
Local Sidereal Time
21:26:01
Azimuth
Unknown
Elevation
Unknown
Doppler factor
Unknown
Orbital elements
Apogee altitude
540.909 km
Perigee altitude
539.141 km
Semi-major axis
6,918.162 km
Eccentricity
0.00013
Inclination
53.1591°
RAAN
168.0587°
Arg. of periapsis
89.6805°
True anomaly
270.41866°
Mean anomaly
270.4333°
Eccentric anomaly
270.42598°
Mean motion
3.77187 °/min
Orbital period
95.44 mins
BSTAR
0.000025843
Loading maneuver chart data...
Computing Atmospheric mass density...
Loading historical data...
Loading historical data...
Loading historical data...
Loading historical data...
Loading historical data...
Loading historical data...
Loading historical data...

Documentation

Showing up to 5 results
|